Wolf Creek, OR

9:35 AM PDT on August 24, 2016 (GMT -0700)
Sexton Summit

Weather History for KSXT - January, 2013

Change the Weather History Date:

Thursday, January 3, 2013

  Actual Average Record
Temperature  
Mean Temperature 34 °F -  
Max Temperature 36 °F 40 °F 53 °F (2001)
Min Temperature 32 °F 32 °F 21 °F (2009)
Degree Days  
Heating Degree Days 31    
Moisture  
Dew Point 28 °F    
Average Humidity 82    
Maximum Humidity 100    
Minimum Humidity 52    
Precipitation  
Precipitation 0.00 in - - ()
Sea Level Pressure  
Sea Level Pressure 30.17 in    
Wind  
Wind Speed 15 mph (South)    
Max Wind Speed 18 mph    
Max Gust Speed 30 mph    
Visibility 9 miles    
Events      
Averages and records for this station are not official NWS values.
T = Trace of Precipitation, MM = Missing Value Source: NWS Daily Summary

Daily Weather History Graph

Daily Weather History Graph

Search for Another Location

Airport or City:

Trip Planner

Search our weather history database for the weather conditions in past years. The results will help you decide how hot, cold, wet, or windy it might be!

Date:

Astronomy

Jan. 03, 2013 Rise Set
Actual Time 7:43 AM PST 4:53 PM PST
Civil Twilight 7:11 AM PST 5:24 PM PST
Nautical Twilight 6:36 AM PST 6:00 PM PST
Astronomical Twilight 6:02 AM PST 6:34 PM PST
Moon 11:44 PM PST (1/3) 10:49 AM PST (1/3)
Length of Visible Light 10h 13m
Length of Day
9h 09m
Waning Gibbous, 64% of the Moon is Illuminated
Jan 3
Waning Gibbous
Jan 4
Last Quarter
Jan 11
New
Jan 18
First Quarter
Jan 26
Full

Hourly Weather History & Observations

Time (PST) Temp. Windchill Dew Point Humidity Pressure Visibility Wind Dir Wind Speed Gust Speed Precip Events Conditions
12:56 AM 33.1 °F 22.2 °F 19.9 °F 59% 30.12 in 10.0 mi SE 17.3 mph - N/A   Clear
1:56 AM 34.0 °F 24.2 °F 19.0 °F 54% 30.11 in 10.0 mi ESE 15.0 mph - N/A   Clear
2:56 AM 34.0 °F 23.4 °F 19.0 °F 54% 30.11 in 10.0 mi ESE 17.3 mph - N/A   Clear
3:56 AM 34.0 °F 23.4 °F 19.0 °F 54% 30.09 in 10.0 mi ESE 17.3 mph - N/A   Clear
4:56 AM 33.1 °F 22.6 °F 19.0 °F 56% 30.08 in 10.0 mi ESE 16.1 mph - N/A   Clear
5:56 AM 32.0 °F 20.8 °F 18.0 °F 56% 30.08 in 10.0 mi ESE 17.3 mph 26.5 mph N/A   Clear
6:56 AM 32.0 °F 21.2 °F 17.1 °F 54% 30.09 in 10.0 mi SE 16.1 mph - N/A   Clear
7:56 AM 33.1 °F 23.9 °F 18.0 °F 54% 30.10 in 10.0 mi SE 12.7 mph - N/A   Overcast
8:56 AM 33.1 °F 23.4 °F 18.0 °F 54% 30.12 in 10.0 mi SE 13.8 mph - N/A   Overcast
9:56 AM 33.1 °F 23.4 °F 19.0 °F 56% 30.15 in 10.0 mi SSE 13.8 mph - N/A   Overcast
10:56 AM 36.0 °F 26.3 °F 19.9 °F 52% 30.14 in 10.0 mi South 16.1 mph - N/A   Overcast
11:08 AM 35.6 °F 26.2 °F 19.4 °F 52% 30.09 in 10.0 mi South 15.0 mph - N/A   Overcast
11:56 AM 36.0 °F 28.0 °F 21.0 °F 55% 30.14 in 10.0 mi South 11.5 mph 20.7 mph N/A   Overcast
12:56 PM 35.1 °F 25.2 °F 27.0 °F 72% 30.15 in 10.0 mi SSW 16.1 mph 26.5 mph N/A   Overcast
1:56 PM 34.0 °F 25.5 °F 30.9 °F 89% 30.17 in 10.0 mi South 11.5 mph 23.0 mph N/A   Overcast
2:30 PM 33.8 °F 24.3 °F 32.0 °F 93% 30.11 in 10.0 mi SSW 13.8 mph 27.6 mph N/A   Overcast
2:56 PM 34.0 °F 24.6 °F 32.0 °F 92% 30.19 in 10.0 mi SSW 13.8 mph 24.2 mph N/A   Overcast
3:56 PM 35.1 °F 25.2 °F 33.1 °F 92% 30.20 in 10.0 mi South 16.1 mph 25.3 mph N/A   Overcast
4:09 PM 33.8 °F 23.2 °F 33.8 °F 100% 30.14 in 10.0 mi South 17.3 mph 26.5 mph N/A   Overcast
4:45 PM 33.8 °F 23.2 °F 33.8 °F 100% 30.15 in 10.0 mi South 17.3 mph 26.5 mph N/A   Overcast
4:56 PM 34.0 °F 23.0 °F 33.1 °F 96% 30.22 in 10.0 mi South 18.4 mph 29.9 mph N/A   Overcast
5:04 PM 33.8 °F 23.2 °F 33.8 °F 100% 30.15 in 10.0 mi South 17.3 mph 24.2 mph N/A   Overcast
5:15 PM 33.8 °F 23.9 °F 33.8 °F 100% 30.16 in 1.8 mi South 15.0 mph - N/A   Overcast
5:18 PM 33.8 °F 23.9 °F 33.8 °F 100% 30.16 in 1.2 mi South 15.0 mph - N/A   Overcast
5:25 PM 33.8 °F 23.5 °F 33.8 °F 100% 30.16 in 2.0 mi South 16.1 mph - N/A   Overcast
5:29 PM 33.8 °F 24.3 °F 33.8 °F 100% 30.16 in 5.0 mi South 13.8 mph 24.2 mph N/A   Overcast
5:36 PM 33.8 °F 23.9 °F 33.8 °F 100% 30.16 in 10.0 mi South 15.0 mph 24.2 mph N/A   Overcast
5:56 PM 35.1 °F 25.9 °F 33.1 °F 92% 30.23 in 10.0 mi SSW 13.8 mph 21.9 mph N/A   Overcast
6:56 PM 34.0 °F 24.6 °F 33.1 °F 96% 30.25 in 10.0 mi SSW 13.8 mph 23.0 mph N/A   Partly Cloudy
7:52 PM 33.8 °F 24.3 °F 33.8 °F 100% 30.19 in 9.0 mi SSW 13.8 mph 20.7 mph N/A   Scattered Clouds
7:56 PM 34.0 °F 24.6 °F 33.1 °F 96% 30.25 in 9.0 mi SSW 13.8 mph - N/A   Scattered Clouds
8:06 PM 33.8 °F 24.8 °F 33.8 °F 100% 30.20 in 3.0 mi South 12.7 mph 19.6 mph N/A   Mostly Cloudy
8:39 PM 33.8 °F 24.3 °F 33.8 °F 100% 30.20 in 9.0 mi South 13.8 mph - N/A   Scattered Clouds
8:56 PM 34.0 °F 24.6 °F 33.1 °F 96% 30.27 in 10.0 mi South 13.8 mph - N/A   Scattered Clouds
9:31 PM 33.8 °F 24.8 °F 33.8 °F 100% 30.22 in 10.0 mi South 12.7 mph - N/A   Mostly Cloudy
9:56 PM 34.0 °F 25.5 °F 33.1 °F 96% 30.29 in 10.0 mi South 11.5 mph - N/A   Overcast
10:56 PM 34.0 °F 25.0 °F 33.1 °F 96% 30.29 in 10.0 mi South 12.7 mph - N/A   Overcast
11:56 PM 35.1 °F 25.9 °F 32.0 °F 89% 30.28 in 10.0 mi South 13.8 mph - N/A   Scattered Clouds